Jackson, TN

11:26 PM CST on November 16, 2019 (GMT -0600)
McKellar-Sipes Regional

Weather History for KMKL - September, 2019

Change the Weather History Date:

Sunday, September 22, 2019

  Actual Average Record
Temperature  
Mean Temperature 76 °F 69 °F  
Max Temperature 91 °F 82 °F 96 °F (2010)
Min Temperature 61 °F 56 °F 36 °F (1983)
Degree Days  
Heating Degree Days 0 1  
Month to date heating degree days 0 7  
Since 1 July heating degree days 0 7  
Cooling Degree Days 11 5  
Month to date cooling degree days 308 185  
Year to date cooling degree days 1769 1608  
Growing Degree Days 26 (Base 50)    
Moisture  
Dew Point 63 °F    
Average Humidity 66    
Maximum Humidity 90    
Minimum Humidity 43    
Precipitation  
Precipitation 0.00 in 0.12 in 2.17 in (1992)
Month to date precipitation 0.00 2.34  
Year to date precipitation 46.71 38.21  
Sea Level Pressure  
Sea Level Pressure 30.08 in    
Wind  
Wind Speed 6 mph ()    
Max Wind Speed 17 mph    
Max Gust Speed 23 mph    
Visibility 10.0 miles    
Events      
T = Trace of Precipitation, MM = Missing Value Source: Averaged Metar Reports

Daily Weather History Graph

Daily Weather History Graph

Search for Another Location

Airport or City:

Astronomy

Sep. 22, 2019 Rise Set
Actual Time 6:43 AM CDT 6:52 PM CDT
Civil Twilight 6:18 AM CDT 7:18 PM CDT
Nautical Twilight 5:48 AM CDT 7:47 PM CDT
Astronomical Twilight 5:18 AM CDT 8:17 PM CDT
Moon No Moon Rise 2:35 PM CDT (9/22)
Length of Visible Light 13h 00m
Length of Day
12h 09m
Last Quarter, 44% of the Moon is Illuminated
Sep 22
Last Quarter
Sep 28
New
Oct 5
First Quarter
Oct 13
Full
Oct 21
Last Quarter

Hourly Weather History & Observations

Time (CDT) Temp. Heat Index Dew Point Humidity Pressure Visibility Wind Dir Wind Speed Gust Speed Precip Events Conditions
12:53 AM 64.9 °F - 60.1 °F 84% 30.12 in 10.0 mi South 4.6 mph - N/A   Clear
1:53 AM 66.0 °F - 60.1 °F 81% 30.12 in 10.0 mi SSW 4.6 mph - N/A   Clear
2:53 AM 68.0 °F - 59.0 °F 73% 30.10 in 10.0 mi South 5.8 mph - N/A   Clear
3:53 AM 63.0 °F - 57.9 °F 84% 30.11 in 10.0 mi South 3.5 mph - N/A   Clear
4:53 AM 61.0 °F - 57.9 °F 90% 30.12 in 10.0 mi Calm Calm - N/A   Clear
5:53 AM 63.0 °F - 59.0 °F 87% 30.12 in 10.0 mi South 5.8 mph - N/A   Clear
6:53 AM 68.0 °F - 60.1 °F 76% 30.13 in 10.0 mi South 8.1 mph - N/A   Clear
7:53 AM 71.1 °F - 62.1 °F 73% 30.14 in 10.0 mi South 5.8 mph - N/A   Partly Cloudy
8:53 AM 72.0 °F - 63.0 °F 73% 30.15 in 10.0 mi South 4.6 mph - N/A   Clear
9:53 AM 79.0 °F - 66.0 °F 64% 30.15 in 10.0 mi SSW 9.2 mph - N/A   Clear
10:53 AM 84.9 °F 88.2 °F 68.0 °F 57% 30.13 in 10.0 mi SW 10.4 mph - N/A   Clear
11:53 AM 88.0 °F 90.3 °F 66.0 °F 48% 30.12 in 10.0 mi SW 13.8 mph - N/A   Scattered Clouds
12:53 PM 89.1 °F 91.3 °F 66.0 °F 46% 30.09 in 10.0 mi SW 9.2 mph - N/A   Scattered Clouds
1:53 PM 87.1 °F 88.3 °F 64.0 °F 46% 30.06 in 10.0 mi South 11.5 mph - N/A   Scattered Clouds
2:53 PM 87.1 °F 88.9 °F 64.9 °F 48% 30.04 in 10.0 mi South 11.5 mph - N/A   Scattered Clouds
3:53 PM 89.1 °F 90.3 °F 64.0 °F 43% 30.03 in 10.0 mi South 12.7 mph 17.3 mph N/A   Mostly Cloudy
4:53 PM 87.1 °F 88.9 °F 64.9 °F 48% 30.03 in 10.0 mi South 8.1 mph - N/A   Scattered Clouds
5:53 PM 84.9 °F 87.1 °F 66.0 °F 53% 30.03 in 10.0 mi South 5.8 mph - N/A   Clear
6:53 PM 79.0 °F - 66.0 °F 64% 30.02 in 10.0 mi South 4.6 mph - N/A   Clear
7:53 PM 75.0 °F - 66.0 °F 73% 30.03 in 10.0 mi South 4.6 mph - N/A   Clear
8:53 PM 73.9 °F - 64.9 °F 73% 30.04 in 10.0 mi South 5.8 mph - N/A   Clear
9:53 PM 75.0 °F - 64.0 °F 69% 30.05 in 10.0 mi South 6.9 mph - N/A   Clear
10:53 PM 75.9 °F - 63.0 °F 64% 30.04 in 10.0 mi South 9.2 mph - N/A   Clear
11:53 PM 73.9 °F - 62.1 °F 66% 30.04 in 10.0 mi South 8.1 mph - N/A   Clear